Location: Coffee Creek Observatory
(38.8077°N, 94.7179°W)
Time: 08:07:16
(UTC-05:00)

Daily predictions for brighter satellites

Satellite Brightness Start Highest point End
(mag) Time Altitude Azimuth Time Altitude Azimuth Time Altitude Azimuth
ERBS 4.2 21:10:30 10° NNW 21:13:13 21° NE 21:15:56 10° E
Cosmos 1709 Rocket 4.4 21:08:43 10° SSW 21:14:48 70° W 21:20:58 10° N
NOSS 2-2 (E) 3.9 21:11:34 10° S 21:15:26 42° ESE 21:19:48 10° NE
Cosmos 2074 Rocket 4.1 21:15:29 10° SSE 21:21:37 57° E 21:27:44 10° NNE
SPOT 5 4.0 21:19:30 10° SE 21:24:06 33° ENE 21:28:50 10° N
COSMOS 2406 3.8 21:20:29 10° N 21:25:59 44° ENE 21:30:59 12° SE
Cosmos 909 Rocket 4.2 21:20:56 10° SSW 21:27:14 67° ESE 21:34:43 10° NE
SJ-11-01 4.3 21:22:51 10° SSE 21:27:35 75° ENE 21:32:20 10° N
H-2A R/B 2.5 21:24:13 10° SE 21:28:22 44° ENE 21:32:27 10° N
ERS-1 Rocket 3.0 21:23:22 10° SSE 21:28:24 75° ENE 21:33:27 10° N
Cosmos 1356 Rocket 3.4 21:24:57 10° S 21:29:06 64° E 21:33:20 10° NNE
ALOS 3.8 21:30:03 10° SSW 21:34:19 36° W 21:38:38 10° NNW
ATLAS 5 CENTAUR R/B 2.7 21:35:51 10° NNW 21:41:49 59° NE 21:46:55 16° SE
ARGOS 4.4 21:38:34 13° ESE 21:42:00 24° ENE 21:46:14 10° NNE
PSLV R/B 3.5 21:40:33 10° WNW 21:44:00 70° N 21:46:43 16° E
Cosmos 2278 Rocket 3.3 21:43:31 15° SE 21:46:35 23° E 21:50:54 10° NE
OPS 6432 4.2 21:43:09 10° SSW 21:46:45 69° ESE 21:49:52 10° NE
Sich 1 Rocket 4.0 21:42:42 10° SSE 21:47:04 45° E 21:51:26 10° NNE
Abrixas rocket 2.5 21:44:29 10° WNW 21:47:52 62° SW 21:49:51 22° SE
CZ-4 DEB 4.5 21:45:51 10° SSW 21:48:43 31° W 21:51:36 10° NNW
Cosmos 1844 4.2 21:43:35 10° S 21:48:48 37° ESE 21:54:05 10° NE
USA 234 3.8 21:46:11 10° ENE 21:52:01 34° SE 21:57:50 10° S
CZ-4B R/B 4.2 21:47:59 10° NE 21:52:21 30° E 21:54:54 19° SE
Cosmos 1825 3.3 21:54:31 23° ESE 21:55:42 27° E 21:58:56 10° NNE
Cosmos 1674 Rocket 3.5 21:54:17 10° N 21:58:46 74° E 22:02:00 18° SSE
Cosmos 2056 Rocket 3.5 21:53:36 10° SSW 21:58:48 86° WNW 22:03:57 10° NNE
Cosmos 1844 Rocket 2.7 21:54:20 10° S 21:59:55 64° ESE 22:05:31 10° NNE
Cosmos 1939 Rocket 3.2 21:57:31 12° S 22:01:04 60° W 22:04:56 10° NNW
Meteor 1-27 Rocket 3.9 21:57:48 10° N 22:03:16 53° ENE 22:06:41 22° SSE
Cosmos 1184 Rocket 4.2 22:04:01 22° E 22:04:01 22° E 22:06:27 10° NE
Cosmos 1782 2.7 22:01:54 10° N 22:05:56 88° E 22:08:35 21° S
Cosmos 2082 Rocket 4.3 22:03:45 10° NNE 22:06:22 13° NE 22:08:58 10° ENE
Cosmos 1782 Rocket 4.3 22:07:23 27° SE 22:08:57 35° E 22:13:01 10° NNE
Atlas Centaur 2 2.4 22:09:20 10° SW 22:12:00 22° S 22:12:00 22° S
COSMOS 2487 4.2 22:10:26 10° NNE 22:13:12 20° ENE 22:13:44 20° ENE
SL-27 R/B 2.4 22:11:13 10° NNW 22:14:55 90° E 22:16:20 35° SSE
Coronas F rocket 4.1 22:13:48 10° SW 22:15:47 19° WNW 22:17:47 10° NNW
YAOGAN 6 2.5 22:14:36 37° SSE 22:15:50 68° ENE 22:19:20 10° N
Cosmos 1408 2.8 22:15:26 37° SE 22:16:25 48° E 22:19:58 10° NNE
Cosmos 962 Rocket 4.5 22:14:40 18° SSE 22:19:14 61° E 22:25:20 10° NNE
MetOp-A 4.1 22:16:22 22° SSE 22:19:58 90° WSW 22:25:21 10° NNW
CZ-4 R/B 4.2 22:15:46 10° NNE 22:20:12 40° E 22:21:34 32° SE
SL-8 R/B 4.2 22:16:04 10° WSW 22:20:50 61° NNW 22:25:35 10° NE
COS B Rocket 3.3 22:18:00 10° N 22:22:15 83° W 22:24:24 26° S
Cosmos 2154 Rocket 3.9 22:17:48 10° S 22:24:02 87° E 22:30:17 10° N
CENTAUR R/B 3.5 22:16:54 10° NW 22:24:41 61° WSW 22:30:41 20° S
Cosmos 1975 Rocket 3.5 22:22:16 10° N 22:26:25 44° E 22:27:24 37° ESE
SL-08 RB Rocket 4.1 22:24:57 34° ESE 22:26:28 48° ENE 22:30:55 10° N
Cosmos 1606 2.7 22:24:03 10° N 22:28:00 85° W 22:29:28 37° S
NOAA 11 4.2 22:28:50 32° SE 22:31:25 66° ENE 22:36:53 10° N
Okean 3 3.5 22:28:52 10° N 22:33:09 64° E 22:34:14 45° SE
Cosmos 1908 Rocket 3.8 22:31:02 17° SSW 22:34:18 67° W 22:38:43 10° N
USA 245 2.5 22:35:53 83° S 22:35:59 88° W 22:39:26 10° NNW
Cosmos 1242 Rocket 3.4 22:34:12 10° N 22:37:28 36° ENE 22:37:28 36° ENE
H-2A R/B 2.8 22:36:42 32° ESE 22:38:23 40° ENE 22:43:22 10° N
Envisat 4.4 22:34:09 11° SSW 22:38:34 34° W 22:43:11 10° NNW
CZ-4 SHROUD 4.4 22:40:54 31° SW 22:41:33 35° W 22:44:27 10° NNW
Cosmos 1378 Rocket 3.6 22:39:25 10° NNW 22:43:43 71° W 22:45:11 40° SSW
Cosmos 1295 Rocket 4.4 22:42:45 29° S 22:46:10 73° E 22:52:27 10° N
Cosmos 1420 Rocket 4.0 22:46:17 43° SSE 22:47:41 57° ESE 22:52:49 10° NNE
Cosmos 2151 Rocket 4.5 22:48:59 34° E 22:48:59 34° E 22:52:46 10° NNE
ERBS 3.4 22:46:56 10° WNW 22:50:03 36° WSW 22:50:03 36° WSW
SPOT 1/Viking Rocket 3.8 22:51:06 34° S 22:53:20 66° WSW 22:58:33 10° NNW
CZ-3C R/B 4.1 22:43:51 10° SW 22:54:31 18° SSW 22:55:50 18° S
Cosmos 489 Rocket 4.4 22:50:48 10° NNW 22:57:01 74° ENE 22:59:04 44° SE
Cosmos 2366 rocket 4.2 22:56:09 42° SE 22:57:48 53° E 23:03:54 10° NNE
Cosmos 407 Rocket 4.3 22:54:54 10° NNW 22:59:54 45° WSW 23:02:05 29° SSW
Cosmos 1238 Rocket 3.4 22:58:08 10° NNW 23:01:07 39° W 23:01:14 39° W
Landsat 7 3.7 23:00:35 60° SE 23:01:25 79° ENE 23:06:11 10° N
Meteor 1-14 Rocket 4.2 23:00:06 47° SSE 23:01:37 67° E 23:07:13 10° NNE
Cosmos 1452 Rocket 4.2 22:57:01 10° SW 23:02:09 54° WNW 23:07:20 10° N
Cosmos 2084 3.4 23:08:44 62° W 23:09:04 67° NW 23:12:53 10° NNE
Intercosmos 25 3.8 23:11:43 48° WSW 23:12:09 52° W 23:15:23 10° N
ASTEX 1 4.2 23:08:23 10° NNE 23:12:25 36° ENE 23:12:25 36° ENE
Spot 4 4.1 23:13:29 53° E 23:13:45 54° ENE 23:18:30 10° N
Cosmos 614 Rocket 4.0 23:10:59 10° N 23:16:01 59° ENE 23:16:24 57° E
Cosmos 1140 Rocket 3.3 23:11:48 10° NNW 23:16:58 86° WSW 23:17:37 69° S
Terra 1.6 23:16:52 75° ESE 23:17:10 79° ENE 23:21:56 10° N
Cosmos 2218 Rocket 4.0 23:17:25 43° S 23:19:42 89° W 23:26:09 10° N
DELTA 2 DEB (DPAF) 4.3 23:20:32 63° SW 23:20:49 65° WSW 23:25:16 10° NNW
Okean 2 Rocket 4.2 23:20:05 31° WSW 23:21:33 41° W 23:25:45 10° N
ARGOS 4.0 23:20:05 31° SW 23:21:58 41° W 23:27:01 10° NNW
DMSP B5D2-2 3.9 23:18:01 10° NNE 23:23:16 87° ESE 23:24:02 66° S
ATLAS 5 CENTAUR R/B 4.0 23:21:23 10° WNW 23:26:15 25° WSW 23:28:29 20° SW
BREEZE-M DEB (TANK) 2.7 23:18:16 10° WNW 23:26:27 76° SW 23:26:27 76° SW
CZ-4C R/B 4.2 23:30:16 43° WNW 23:30:16 43° WNW 23:33:37 10° NNW
Cosmos 2278 Rocket 3.1 23:25:14 12° SW 23:30:17 47° WNW 23:35:47 10° NNE
USA 234 3.6 23:28:46 10° NE 23:35:13 64° NW 23:41:38 10° WSW
Cosmos 1850 Rocket 3.9 23:32:05 10° NNW 23:37:25 76° WSW 23:37:42 73° SW
Cosmos 1833 Rocket 3.0 23:33:09 10° NNW 23:38:38 52° ENE 23:39:00 51° ENE
Cosmos 1727 Rocket 3.8 23:33:02 10° N 23:39:14 90° E 23:40:11 66° S
Cosmos 1812 4.1 23:37:37 10° N 23:40:03 35° NNE 23:40:03 35° NNE
Timation 2 Rocket 3.9 23:43:52 10° NNW 23:49:46 62° WSW 23:50:18 59° SW
Cosmos 2082 Rocket 2.0 23:45:37 10° NNW 23:51:22 84° ENE 23:51:28 83° E
